Home > Weather > Mühlacker > Past weeks

Flag for Germany Past Weather in Mühlacker, Baden-Württemberg, Germany — Yesterday and Last 2 Weeks

Now
77 °F

Scattered clouds.


Feels Like: 79 °F
Forecast: 64 / 78 °F
Wind: 9 mph from North

Location: Stuttgart-Echterdingen

Current Time: Jul 24, 2016 at 6:47:01 PM

Latest Report: Jul 24, 2016 at 6:20 PM


Visibility: N/A

Pressure: 30.07 "Hg

Humidity: 61%

Dew Point: 63 °F

Location of MühlackerLocation

Past Weather in Mühlacker — Graph

°F

Mühlacker Temperature Yesterday

Maximum temperature yesterday: 77 °F (at 4:50 PM)
Minimum temperature yesterday: 63 °F (at 2:50 AM)
Average temperature yesterday: 68 °F

High & Low Weather Summary for the Past Weeks

 TemperatureHumidityPressure
High91 °F (Jul 20, 4:20 PM)100% (Jul 18, 6:20 AM)30.33 "Hg (Jul 18, 6:20 AM)
Low48 °F (Jul 15, 5:50 AM)28% (Jul 20, 4:50 PM)29.89 "Hg (Jul 10, 5:20 PM)
Average68 °F70%30.09 "Hg
* Reported Jul 9 5:20 PM — Jul 24 5:50 PM, Mühlacker, Weather by CustomWeather, © 2016

Note: Actual official high and low records may vary slightly from our data, if they occured in-between our weather recording intervals... More about our weather records

Advertising

Mühlacker Weather History for the Previous 24 Hours

Scroll right to see more
 ConditionsComfort  
Time TempWeatherWind HumidityBarometerVisibility
5:50 PM
Sun, Jul 24
77 °FScattered clouds.8 mph61%30.07 "HgN/A
5:20 PM77 °FScattered clouds.10 mph61%30.07 "HgN/A
4:50 PM77 °FScattered clouds.8 mph61%30.09 "HgN/A
4:20 PM77 °FScattered clouds.10 mph61%30.09 "HgN/A
3:50 PM79 °FPartly sunny.12 mph61%30.09 "HgN/A
3:20 PM77 °FScattered clouds.12 mph61%30.09 "HgN/A
2:50 PM77 °FScattered clouds.7 mph61%30.09 "HgN/A
2:20 PM77 °FSprinkles. Scattered clouds.2 mph65%30.09 "HgN/A
1:50 PM75 °FScattered clouds.6 mph65%30.09 "HgN/A
1:20 PM75 °FScattered clouds.1 mph69%30.12 "HgN/A
12:50 PM73 °FScattered clouds.2 mph69%30.09 "HgN/A
12:20 PM73 °FScattered clouds.5 mph74%30.12 "HgN/A
11:50 AM70 °FScattered clouds.5 mph83%30.12 "HgN/A
11:20 AM73 °FScattered clouds.6 mph74%30.12 "HgN/A
10:50 AM72 °FBroken clouds.5 mph73%30.12 "HgN/A
10:20 AM70 °FBroken clouds.1 mph83%30.12 "HgN/A
9:50 AM68 °FBroken clouds.1 mph88%30.12 "HgN/A
9:20 AM66 °FBroken clouds.1 mph94%30.12 "HgN/A
8:50 AM66 °FBroken clouds.2 mph94%30.12 "HgN/A
8:20 AM66 °FBroken clouds.2 mph94%30.12 "HgN/A
7:50 AM64 °FBroken clouds.1 mph100%30.12 "Hg5 mi
7:20 AM64 °FFog.1 mph100%30.12 "Hg3 mi
6:50 AM64 °FBroken clouds.2 mph94%30.09 "Hg5 mi
6:20 AM64 °FPassing clouds.1 mph94%30.09 "Hg5 mi
5:50 AM64 °FPassing clouds.2 mph94%30.09 "Hg6 mi
5:20 AM63 °FPassing clouds.No wind100%30.09 "HgN/A
4:50 AM64 °FPassing clouds.1 mph94%30.09 "HgN/A
4:20 AM63 °FPassing clouds.3 mph100%30.09 "HgN/A
3:50 AM63 °FPassing clouds.1 mph100%30.09 "HgN/A
3:20 AM64 °FPassing clouds.No wind100%30.09 "HgN/A
2:50 AM64 °FFog.No wind94%30.09 "HgN/A
2:20 AM64 °FPassing clouds.1 mph100%30.09 "HgN/A
1:50 AM66 °FSprinkles. Passing clouds.2 mph94%30.12 "HgN/A
1:20 AM66 °FScattered showers. Partly cloudy.1 mph94%30.12 "HgN/A
12:50 AM66 °FPassing clouds.2 mph94%30.12 "HgN/A
12:20 AM66 °FScattered showers. Passing clouds.5 mph94%30.12 "HgN/A
11:50 PM
Sat, Jul 23
68 °FScattered showers. Passing clouds.3 mph94%30.09 "HgN/A
11:20 PM68 °FSprinkles. Passing clouds.2 mph94%30.09 "HgN/A
10:50 PM68 °FSprinkles. Passing clouds.3 mph94%30.09 "HgN/A
10:20 PM68 °FClear.2 mph88%30.09 "Hg10 mi
9:50 PM68 °FBroken clouds.6 mph94%30.09 "HgN/A
9:20 PM68 °FSprinkles. Broken clouds.9 mph94%30.07 "HgN/A
8:50 PM70 °FBroken clouds.5 mph88%30.07 "HgN/A
8:20 PM70 °FBroken clouds.1 mph83%30.07 "HgN/A
7:50 PM70 °FBroken clouds.3 mph88%30.07 "HgN/A
7:20 PM72 °FBroken clouds.2 mph83%30.07 "HgN/A
6:50 PM72 °FThunderstorms. Broken clouds.5 mph78%30.07 "HgN/A
6:20 PM75 °FBroken clouds.6 mph65%30.04 "HgN/A
Weather by CustomWeather, © 2016

See weather overviewHow to use our weather pages